Tracking 19796 objects as of 19-Jul-2019
HD Live streaming from Space Station
objects crossing your sky now

FENGYUN 1C DEB

Track FENGYUN 1C DEB now!
10-day predictions


NORAD ID: 35134
Int'l Code: 1999-025DLN
Perigee: 701.0 km
Apogee: 790.8 km
Inclination: 98.9 °
Period: 99.6 minutes
Semi major axis: 7116 km
RCS: 0.0125 m2 (small)
Launch date: May 10, 1999
Source: People's Republic of China (PRC)
Launch site: Taiyaun Space Center, China (TSC)

Note: This is SATELLITE DEBRIS
aabbcc
Your satellite tracking list
Your tracking list is empty




NASA's NSSDC Master Catalog

Two Line Element Set (TLE):
1 35134U 99025DLN 19198.30716321  .00000895  00000-0  25931-3 0  9997
2 35134  98.9266  28.8935 0063111 301.0133  58.4868 14.46003294556723
Source of the keplerian elements: AFSPC